User: anonymous   Login
Location: Oronoko Observatory
(41.9167°N, 86.3833°W)
Time: 15:35:35
(UTC-05:00)
Language:

PAYLOAD A - Orbit

View from above orbital plane
View from above orbital plane
View from above satellite
View from above satellite

Ground track
Ground track

The orbit data is extracted from the following two-line orbital elements,

1 27840U 03031A   16039.95814942 +.00000017 +00000-0 +18459-4 0  9998
2 27840 098.1992 053.1292 0098558 168.3686 249.0632 14.38842568662140
Epoch (UTC): 08 February 2016 22:59:44
Eccentricity: 0.0098558
inclination: 98.1992°
perigee height: 692 km
apogee height: 833 km
right ascension of ascending node: 53.1292°
argument of perigee: 168.3686°
revolutions per day: 14.38842568
mean anomaly at epoch: 249.0632°
orbit number at epoch: 66214

The dashed part of the orbit path shows where the satellite is in the earth's shadow,  

DLR